Location: Novokuznetsk
(53.7500°N, 87.1000°E)
Time: 02:17:59
(UTC+06:00)

ISS - Pass Details

Date: 13 July 2018
Orbit: 402 x 408 km, 51.6° (Epoch: 20 July)

Event Time Altitude Azimuth Distance (km) Brightness Sun altitude
Exits shadow 01:20:13 24° 177° (S) 885 -2.7 -13.1°
Maximum altitude 01:20:56 27° 153° (SSE) 830 -2.7 -13.1°
Drops below altitude 10° 01:23:46 10° 94° (E) 1,473 -0.8 -13.0°
Sets 01:26:02 0° 82° (E) 2,337 0.4 -12.9°
